Pagina principale
METAR-TAF:

METAR-TAF

Aeroporti :

Alpnach, Svizzera

latitudine: 46-56-19N, longitudine: 8-17-03E, altezza: 440 m

Osservazione

Il bollettino è stato emesso 43 minuti fa, alle 23:50 UTC
Vento 2 kt da direzioni variabili
Temperature 8°C
Umidità 93%
Pressione 1010 hPa
Visibilità 10 km o più
Nuvoloso ad un'altezza di 5600 ft

METAR: LSMA 152350Z AUTO VRB02KT 9999NDV BKN056 08/07 Q1010 RMK

Ora: 02:33 (00:33 UTC)


TAF: mancante

Osservazioni e previsioni meteorologiche di più di 4000 aeroporti (messaggi METAR e TAF).

Le stazioni disponibili sono rappresentate dai dischi gialli e rossi sulla carta.

Puntare il mouse per vedere il nome della stazione.

Clicca sopra per visualizzare le osservazioni e previsioni meteorologiche.

Per cambiare la mappa : fare clic sui pulsanti verdi con una croce nera per ingrandire, il pulsante verde con un trattino per diminuire, o sulla freccia verde per le mappe adiacenti.


METAR-TAF: